Regional Weather Roundup
Issued by NWS

Home | Current Version | Previous Version | Graphics & Text | Print | Product List | Glossary On
Versions: 1 2 3 4 5 6 7 8 9 10 11 12 13 14 15 16 17 18 19 20 21 22 23 24 25 26 27 28 29 30 31 32 33 34 35 36 37 38 39 40 41 42 43 44 45 46 47 48 49 50
000
ASUS43 KBIS 170310
RWRND

NORTH DAKOTA REGIONAL WEATHER ROUNDUP
NATIONAL WEATHER SERVICE BISMARCK ND
900 PM CST TUE JAN 16 2018

NOTE: "FAIR" INDICATES FEW OR NO CLOUDS BELOW 12,000 FEET WITH NO
SIGNIFICANT WEATHER AND/OR OBSTRUCTIONS TO VISIBILITY.


NDZ001>003-009>011-017-170400-
NORTHWEST NORTH DAKOTA

CITY           SKY/WX    TMP DP  RH WIND       PRES   REMARKS
WILLISTON      CLEAR      4  -3  73 CALM      30.16F
MINOT          CLOUDY    15  -1  49 S21       30.15F WCI  -2
MINOT AFB      CLOUDY    13  -1  54 S6        30.15F WCI   3
$$

NDZ018>021-031>035-040>046-170400-
SOUTHWEST NORTH DAKOTA

CITY           SKY/WX    TMP DP  RH WIND       PRES   REMARKS
BISMARCK       CLEAR      8  -4  58 SW5       30.31F WCI   0
DICKINSON      CLEAR      9  -2  61 S14       30.14F WCI  -7
GARRISON         N/A      1  -6  72 S8        30.21F WCI -13
HETTINGER ARPT CLEAR      6  -3  66 S5        30.21F WCI  -3
$$

NDZ004>008-012>016-024-026-027-054-170400-
NORTHEAST NORTH DAKOTA

CITY           SKY/WX    TMP DP  RH WIND       PRES   REMARKS
GRAND FORKS    FAIR       5  -2  72 S15       30.34F WCI -13
GRND FRKS AFB  FAIR       6  -4  63 S15       30.32F WCI -12
DEVILS LAKE    FAIR       4  -4  69 SW12      30.25F WCI -12
$$

NDZ022-023-025-028>030-036>039-047>053-170400-
SOUTHEAST NORTH DAKOTA

CITY           SKY/WX    TMP DP  RH WIND       PRES   REMARKS
FARGO          FAIR       5  -3  69 S16       30.44F WCI -14
JAMESTOWN      CLOUDY     5  -3  69 S9        30.31F WCI  -9
$$





USA.gov is the U.S. government's official web portal to all federal, state and local government web resources and services.